Location: Csohesd
(46.2500°N, 22.6167°E)
Time: 13:38:33
(UTC+00:00)

Okean 1-7 Rocket - Pass Details

Date: 21 October 2021
Orbit: 617 x 648 km, 82.5° (Epoch: 06 December)

Event Time Altitude Azimuth Distance (km) Brightness Sun altitude
Rises 16:47:24 0° 352° (N) 2,906 7.1 -13.6°
Reaches altitude 10° 16:49:38 10° 354° (N) 1,998 6.2 -14.0°
Maximum altitude 16:54:03 76° 80° (E) 649 3.5 -14.8°
Drops below altitude 10° 16:58:29 10° 167° (SSE) 1,997 6.0 -15.5°
Sets 17:00:43 0° 169° (SSE) 2,905 6.9 -15.9°
